GW1476 Weather Reports


time (UTC)temp
C
wind
direction
speed
KPH
gust
KPH
rain 1hr
cm
rain 24hr
cm
rain mn
cm
humidity
%
barometer
mb
20260905042048 22 225 0.0 0.0 0.00 0.00 0.00 99 1017.9
20260905041617 22 203 0.0 0.0 0.00 0.00 0.00 99 1017.6
20260905041200 22 225 0.0 0.0 0.00 0.00 0.00 99 1017.9
20260905040743 22 203 0.0 0.0 0.00 0.00 0.00 99 1017.9
20260905040311 22 203 0.0 0.0 0.00 0.00 0.00 99 1017.9
20260905035839 22 203 0.0 0.0 0.00 0.00 0.03 99 1017.9
20260905035424 22 225 0.0 0.0 0.00 0.00 0.03 99 1017.9
20260905035008 22 225 0.0 0.0 0.00 0.00 0.03 99 1017.9
20260905034553 22 203 0.0 0.0 0.00 0.00 0.03 99 1017.9
20260905034136 23 203 0.0 0.0 0.00 0.00 0.03 99 1017.9
20260905033721 23 203 0.0 0.0 0.00 0.00 0.03 99 1017.6
20260905033300 23 203 0.0 0.0 0.00 0.00 0.03 99 1017.6
20260905032842 23 203 0.0 0.0 0.00 0.00 0.03 99 1017.6
20260905032411 23 225 0.0 0.0 0.00 0.00 0.03 99 1017.6
20260905031520 23 225 0.0 0.0 0.00 0.00 0.03 99 1017.6
20260905031049 23 225 0.0 0.0 0.00 0.00 0.03 99 1017.2
20260905030618 23 225 0.0 0.0 0.00 0.00 0.03 99 1017.2
20260905030147 23 225 0.0 0.0 0.00 0.00 0.03 99 1017.2
20260905025729 23 225 0.0 0.0 0.00 0.00 0.03 99 1017.6
20260905025314 23 225 0.0 0.0 0.00 0.00 0.03 99 1017.2
20260905024859 23 293 0.0 0.0 0.00 0.00 0.03 99 1017.2
20260905024443 23 270 0.0 0.0 0.00 0.00 0.03 99 1017.2
20260905023539 23 180 0.0 0.0 0.00 0.00 0.03 99 1017.2
20260905023051 23 248 0.0 0.0 0.00 0.00 0.03 99 1017.2
20260905022621 23 248 0.0 0.0 0.00 0.00 0.03 99 1017.6
20260905022204 23 203 0.0 0.0 0.00 0.00 0.03 99 1017.6
20260905021730 23 180 0.0 0.0 0.00 0.00 0.03 99 1017.6
20260905021312 23 203 0.0 0.0 0.00 0.00 0.03 99 1017.6
20260905020857 23 270 0.0 0.0 0.00 0.00 0.03 99 1017.6
20260905020442 23 293 0.0 0.0 0.00 0.00 0.03 99 1017.6
20260905020026 23 225 0.0 0.0 0.00 0.00 0.03 99 1017.2
20260905015610 24 203 0.0 0.0 0.00 0.00 0.03 99 1017.6
20260905015140 24 225 0.0 0.0 0.00 0.00 0.03 99 1017.6
20260905014252 24 203 0.0 0.0 0.00 0.00 0.03 99 1017.2
20260905013836 24 203 0.0 0.0 0.00 0.00 0.03 99 1017.2
20260905013420 24 203 0.0 0.0 0.00 0.00 0.03 99 1017.2
20260905012532 25 225 0.0 0.0 0.00 0.00 0.03 99 1017.2
20260905012116 25 225 0.0 0.0 0.00 0.00 0.03 99 1017.2
20260905011657 25 203 0.0 3.2 0.00 0.00 0.03 99 1016.9
20260905010753 25 203 3.2 3.2 0.00 0.00 0.03 99 1016.5
20260905010336 25 225 1.6 3.2 0.00 0.00 0.03 99 1016.5
20260905005919 25 203 0.0 0.0 0.00 0.00 0.03 99 1016.5
20260905005503 25 203 0.0 0.0 0.00 0.00 0.03 99 1016.2
20260905004616 25 225 0.0 0.0 0.00 0.00 0.03 99 1015.9
20260905004159 25 203 0.0 0.0 0.00 0.00 0.03 99 1015.5
20260905003742 25 225 0.0 0.0 0.00 0.00 0.03 99 1015.5
20260905003312 25 270 0.0 0.0 0.00 0.00 0.03 99 1015.2
20260905002856 26 270 1.6 3.2 0.00 0.00 0.03 99 1015.2
20260905002439 26 0 3.2 3.2 0.00 0.00 0.03 99 1015.2
20260905002024 26 0 3.2 4.8 0.00 0.00 0.03 99 1015.2
20260905001609 26 225 0.0 0.0 0.00 0.00 0.03 99 1014.9
20260905001152 26 203 0.0 0.0 0.00 0.00 0.03 99 1015.2
20260905000735 26 270 0.0 0.0 0.00 0.00 0.03 98 1015.2
20260905000318 26 248 0.0 3.2 0.00 0.00 0.03 98 1015.5
20260904235856 26 180 1.6 3.2 0.00 0.00 0.03 97 1015.9
20260904235425 26 270 3.2 3.2 0.00 0.00 0.03 96 1015.9
20260904235008 27 225 0.0 0.0 0.00 0.00 0.03 96 1016.2
20260904234123 27 203 4.8 4.8 0.00 0.00 0.03 94 1016.5
20260904232320 28 203 0.0 3.2 0.00 0.00 0.03 86 1016.9
20260904231902 29 225 0.0 3.2 0.00 0.00 0.03 85 1016.9
20260904231447 31 203 3.2 3.2 0.00 0.00 0.03 81 1016.9
20260904231015 30 270 0.0 0.0 0.00 0.00 0.03 81 1016.9
20260904230544 31 225 0.0 0.0 0.00 0.00 0.03 79 1016.9
20260904230113 30 203 1.6 4.8 0.00 0.00 0.03 83 1016.9
20260904225641 31 203 4.8 4.8 0.00 0.00 0.03 77 1017.2
20260904225224 32 203 3.2 3.2 0.00 0.00 0.03 75 1017.2
20260904224321 32 0 3.2 3.2 0.00 0.00 0.03 74 1017.2
20260904223848 33 23 3.2 6.4 0.00 0.00 0.03 72 1017.2
20260904223402 32 0 4.8 6.4 0.00 0.00 0.03 74 1017.2
20260904222945 32 158 0.0 0.0 0.00 0.00 0.03 75 1017.2
20260904222528 31 180 1.6 3.2 0.00 0.00 0.03 78 1017.6
20260904222111 31 203 3.2 3.2 0.00 0.00 0.03 80 1017.6
20260904221639 30 180 4.8 4.8 0.00 0.00 0.03 82 1017.6
20260904220734 31 158 3.2 3.2 0.00 0.00 0.03 81 1017.9
20260904220312 31 180 0.0 3.2 0.00 0.00 0.03 80 1017.9
20260904215854 31 225 3.2 4.8 0.00 0.00 0.03 80 1017.9
20260904215438 31 203 3.2 3.2 0.00 0.00 0.03 80 1017.9
20260904215004 31 225 0.0 0.0 0.00 0.00 0.03 79 1017.9
20260904214548 31 45 0.0 1.6 0.00 0.00 0.03 80 1017.9
20260904214128 31 315 6.4 8.0 0.00 0.00 0.03 80 1017.9
20260904213655 31 68 4.8 6.4 0.00 0.00 0.03 81 1017.9
20260904213238 31 0 3.2 3.2 0.00 0.00 0.03 86 1017.2
20260904212804 30 248 1.6 4.8 0.00 0.00 0.03 90 1017.2
20260904212348 30 180 4.8 4.8 0.00 0.00 0.03 88 1017.2
20260904211027 32 225 0.0 3.2 0.00 0.00 0.03 78 1017.2
20260904210539 31 270 0.0 0.0 0.00 0.00 0.03 79 1017.2
20260904210123 32 315 3.2 3.2 0.00 0.00 0.03 78 1017.2
20260904205707 31 270 0.0 1.6 0.00 0.00 0.03 81 1016.9
20260904205236 31 23 0.0 0.0 0.00 0.00 0.03 80 1016.9
20260904204803 32 248 3.2 3.2 0.00 0.00 0.03 78 1016.9
20260904204345 31 23 0.0 1.6 0.00 0.00 0.03 80 1016.9
20260904203442 31 0 4.8 4.8 0.00 0.00 0.03 80 1016.9
20260904203010 31 180 1.6 3.2 0.00 0.00 0.03 82 1016.9
20260904202554 30 180 3.2 4.8 0.00 0.00 0.03 82 1017.2
20260904202138 30 270 3.2 3.2 0.00 0.00 0.03 82 1017.6
20260904201721 31 203 3.2 3.2 0.00 0.00 0.03 79 1017.6
20260904201304 31 225 0.0 0.0 0.00 0.00 0.03 76 1017.6
20260904200358 32 180 1.6 3.2 0.00 0.00 0.03 74 1017.9
20260904195925 32 0 0.0 0.0 0.00 0.00 0.03 71 1017.9
20260904194128 32 23 4.8 4.8 0.00 0.00 0.03 70 1017.6
20260904192751 32 158 0.0 3.2 0.00 0.00 0.03 71 1017.6
20260904191905 32 0 8.0 9.7 0.00 0.00 0.03 72 1017.9
20260904191434 31 45 4.8 4.8 0.00 0.00 0.03 72 1017.9
20260904191000 31 23 3.2 6.4 0.00 0.00 0.03 74 1017.9
20260904190546 32 23 4.8 9.7 0.00 0.00 0.03 72 1017.9
20260904190116 32 0 4.8 4.8 0.00 0.00 0.03 72 1017.9
20260904185645 32 45 3.2 11.3 0.00 0.00 0.03 71 1017.9
20260904185227 33 23 3.2 11.3 0.00 0.00 0.03 70 1017.9
20260904184739 34 45 19.3 19.3 0.00 0.00 0.03 67 1017.6
20260904183850 34 338 3.2 6.4 0.00 0.00 0.03 66 1017.6
20260904183433 34 0 3.2 4.8 0.00 0.00 0.03 64 1017.6
20260904183018 35 0 4.8 9.7 0.00 0.00 0.03 62 1017.6
20260904182600 35 23 9.7 12.9 0.00 0.00 0.03 61 1017.9
20260904182146 35 45 8.0 9.7 0.00 0.00 0.03 61 1017.6
20260904181256 36 23 9.7 11.3 0.00 0.00 0.03 60 1017.9
20260904180839 36 45 6.4 9.7 0.00 0.00 0.03 58 1017.6
20260904175904 36 338 3.2 9.7 0.00 0.00 0.03 58 1017.6
20260904175448 36 45 9.7 9.7 0.00 0.00 0.03 59 1017.6
20260904175015 36 23 4.8 6.4 0.00 0.00 0.03 57 1017.6
20260904174542 37 23 4.8 8.0 0.00 0.00 0.03 56 1017.9
20260904174109 37 45 6.4 8.0 0.00 0.00 0.03 57 1017.9
20260904173622 37 180 1.6 6.4 0.00 0.00 0.03 57 1018.2
20260904172713 37 0 8.0 12.9 0.00 0.00 0.03 58 1018.2
20260904172256 37 270 0.0 6.4 0.00 0.00 0.03 59 1018.2
20260904171839 37 45 8.0 12.9 0.00 0.00 0.03 58 1018.2
20260904171422 37 225 3.2 8.0 0.00 0.00 0.03 60 1018.2
20260904170502 37 23 6.4 8.0 0.00 0.00 0.03 60 1018.2
20260904170045 36 23 4.8 6.4 0.00 0.00 0.03 61 1018.6
20260904165628 37 23 3.2 8.0 0.00 0.00 0.03 61 1018.6
20260904165158 36 0 3.2 6.4 0.00 0.00 0.03 61 1018.2
20260904164740 36 248 1.6 6.4 0.00 0.00 0.03 64 1018.6
20260904164323 36 23 1.6 1.6 0.00 0.00 0.03 63 1018.6
20260904163851 37 68 4.8 4.8 0.00 0.00 0.03 63 1018.6
20260904163436 36 225 3.2 3.2 0.00 0.00 0.03 66 1018.6
20260904163017 35 270 1.6 4.8 0.00 0.00 0.03 68 1018.9
20260904162129 35 270 1.6 8.0 0.00 0.00 0.03 68 1018.9
20260904161713 36 203 6.4 6.4 0.00 0.00 0.03 67 1018.9
20260904161241 36 248 4.8 6.4 0.00 0.00 0.03 68 1018.9
20260904160824 36 203 4.8 6.4 0.00 0.00 0.03 67 1018.9
20260904160410 36 225 3.2 4.8 0.00 0.00 0.03 68 1019.3
20260904155953 35 248 3.2 6.4 0.00 0.00 0.03 69 1018.9
20260904155537 35 180 1.6 6.4 0.00 0.00 0.03 71 1018.9
20260904155121 35 270 4.8 8.0 0.00 0.00 0.03 72 1019.3
20260904154702 35 158 3.2 8.0 0.00 0.00 0.03 72 1019.3
20260904154247 34 248 3.2 6.4 0.00 0.00 0.03 73 1019.3
20260904153815 34 180 6.4 6.4 0.00 0.00 0.03 73 1019.3
20260904153358 35 203 3.2 3.2 0.00 0.00 0.03 74 1019.3
20260904152940 34 203 3.2 4.8 0.00 0.00 0.03 74 1019.3
20260904152455 34 180 1.6 6.4 0.00 0.00 0.03 74 1019.3
20260904152039 34 203 3.2 4.8 0.00 0.00 0.03 76 1019.3
20260904151619 34 180 1.6 6.4 0.00 0.00 0.03 75 1019.3
20260904151201 33 180 3.2 4.8 0.00 0.00 0.03 77 1019.3
20260904150745 34 315 1.6 4.8 0.00 0.00 0.03 76 1019.3
20260904150328 33 203 3.2 3.2 0.00 0.00 0.03 78 1019.3
20260904145911 33 203 0.0 1.6 0.00 0.00 0.03 79 1019.3
20260904145438 32 113 3.2 3.2 0.00 0.00 0.03 80 1019.3
20260904144536 32 23 0.0 1.6 0.00 0.00 0.03 80 1019.3
20260904143645 32 23 0.0 3.2 0.00 0.00 0.03 81 1019.3
20260904142757 31 180 3.2 4.8 0.00 0.00 0.03 84 1019.3
20260904142342 31 0 3.2 3.2 0.00 0.00 0.03 83 1019.3
20260904141910 30 225 0.0 0.0 0.00 0.00 0.03 86 1019.3
20260904141454 30 158 1.6 3.2 0.00 0.00 0.03 86 1019.3
20260904141039 30 203 1.6 4.8 0.00 0.00 0.03 85 1019.3
20260904140624 30 203 1.6 3.2 0.00 0.00 0.03 86 1019.3
20260904140208 29 225 0.0 4.8 0.00 0.00 0.03 89 1019.3
20260904135750 30 225 3.2 3.2 0.00 0.00 0.03 88 1019.3
20260904135332 30 180 0.0 1.6 0.00 0.00 0.03 88 1019.3
20260904134914 29 270 0.0 1.6 0.00 0.00 0.03 90 1019.3
20260904134459 28 225 0.0 3.2 0.00 0.00 0.03 90 1019.3
20260904134010 28 270 0.0 0.0 0.00 0.00 0.03 92 1019.3
20260904133555 27 203 0.0 0.0 0.00 0.00 0.03 93 1019.3
20260904133138 27 180 0.0 3.2 0.00 0.00 0.03 93 1019.3
20260904132721 27 180 3.2 3.2 0.00 0.00 0.03 94 1019.3
20260904132251 27 203 3.2 3.2 0.00 0.00 0.03 95 1019.6
20260904131834 26 270 0.0 0.0 0.00 0.00 0.03 96 1019.6
20260904131403 26 203 3.2 3.2 0.00 0.00 0.03 97 1019.6
20260904130946 26 225 0.0 0.0 0.00 0.00 0.00 97 1019.6
20260904130514 26 203 0.0 0.0 0.00 0.00 0.00 98 1019.6
20260904130100 26 158 0.0 0.0 0.00 0.00 0.00 98 1019.6
20260904125628 26 203 0.0 0.0 0.00 0.00 0.00 99 1019.6
20260904125212 25 203 0.0 0.0 0.00 0.00 0.00 99 1019.6
20260904124757 25 180 0.0 0.0 0.00 0.00 0.00 99 1019.6
20260904124325 25 113 0.0 0.0 0.00 0.00 0.00 99 1019.6
20260904123854 25 203 0.0 0.0 0.00 0.00 0.00 99 1019.6
20260904123423 24 180 0.0 0.0 0.00 0.00 0.00 99 1019.6
20260904123009 24 158 0.0 0.0 0.00 0.00 0.00 99 1019.9
20260904122110 23 203 0.0 0.0 0.00 0.00 0.00 99 1019.6
20260904121655 23 203 0.0 0.0 0.00 0.00 0.00 99 1019.6
20260904121242 23 225 0.0 0.0 0.00 0.00 0.00 99 1019.6
20260904120825 23 225 0.0 0.0 0.00 0.00 0.00 99 1019.6
20260904120409 22 203 0.0 0.0 0.00 0.00 0.00 99 1019.6
20260904115952 22 225 0.0 0.0 0.00 0.00 0.00 99 1019.6
20260904115539 22 225 0.0 0.0 0.00 0.00 0.00 99 1019.6
20260904115125 22 248 0.0 0.0 0.00 0.00 0.00 99 1019.6
20260904114709 22 248 0.0 0.0 0.00 0.00 0.00 99 1019.3
20260904114253 22 203 0.0 0.0 0.00 0.00 0.00 99 1019.3
20260904113823 22 293 0.0 0.0 0.00 0.00 0.00 99 1019.3
20260904113408 22 225 0.0 0.0 0.00 0.00 0.00 99 1019.3
20260904112952 22 315 0.0 0.0 0.00 0.00 0.00 99 1019.3
20260904112536 22 180 0.0 0.0 0.00 0.00 0.00 99 1019.3
20260904112122 22 225 0.0 0.0 0.00 0.00 0.00 99 1019.3
20260904111705 22 225 0.0 0.0 0.00 0.00 0.00 99 1019.3
20260904111249 22 248 0.0 0.0 0.00 0.00 0.00 99 1019.3
20260904110834 22 315 0.0 0.0 0.00 0.00 0.00 99 1019.3
20260904110417 22 225 0.0 0.0 0.00 0.00 0.00 99 1019.3
20260904105516 22 203 0.0 0.0 0.00 0.00 0.00 99 1019.3
20260904105059 22 315 0.0 0.0 0.00 0.00 0.00 99 1019.3
20260904104628 22 270 0.0 0.0 0.00 0.00 0.00 99 1018.9
20260904104214 22 270 0.0 0.0 0.00 0.00 0.00 99 1018.9
20260904103312 22 225 0.0 0.0 0.00 0.00 0.00 99 1018.9
20260904102857 22 270 0.0 0.0 0.00 0.00 0.00 99 1018.9
20260904102426 22 270 0.0 0.0 0.00 0.00 0.00 99 1018.9
20260904102010 22 270 0.0 0.0 0.00 0.00 0.00 99 1018.9
20260904101555 22 225 0.0 0.0 0.00 0.00 0.00 99 1018.9
20260904101140 22 225 0.0 0.0 0.00 0.00 0.00 99 1018.9
20260904100725 22 203 0.0 0.0 0.00 0.00 0.00 99 1018.9
20260904100309 22 203 0.0 0.0 0.00 0.00 0.00 99 1018.9
20260904095823 22 225 0.0 0.0 0.00 0.00 0.00 99 1018.9
20260904095408 22 203 0.0 0.0 0.00 0.00 0.00 99 1018.9
20260904094951 22 225 0.0 0.0 0.00 0.00 0.00 99 1018.9
20260904094538 22 225 0.0 0.0 0.00 0.00 0.00 99 1018.9
20260904093634 22 225 0.0 0.0 0.00 0.00 0.00 99 1018.9
20260904093200 22 225 0.0 0.0 0.00 0.00 0.00 99 1018.9
20260904092728 22 203 0.0 0.0 0.00 0.00 0.00 99 1018.9
20260904091813 22 225 0.0 0.0 0.00 0.00 0.00 99 1018.6
20260904091327 22 225 0.0 0.0 0.00 0.00 0.00 99 1018.6
20260904090912 22 225 0.0 0.0 0.00 0.00 0.00 99 1018.6
20260904090457 22 225 0.0 0.0 0.00 0.00 0.00 99 1018.6
20260904090042 22 203 0.0 0.0 0.00 0.00 0.00 99 1018.6
20260904085626 22 203 0.0 0.0 0.00 0.00 0.00 99 1018.6
20260904085212 22 315 0.0 0.0 0.00 0.00 0.00 99 1018.6
20260904084325 22 225 0.0 0.0 0.00 0.00 0.00 99 1018.2
20260904083440 22 203 0.0 0.0 0.00 0.00 0.00 99 1018.6
20260904083025 22 270 0.0 0.0 0.00 0.00 0.00 99 1018.2
20260904082139 22 270 0.0 0.0 0.00 0.00 0.00 99 1018.2
20260904081254 22 248 0.0 0.0 0.00 0.00 0.00 99 1018.2
20260904080410 22 113 0.0 0.0 0.00 0.00 0.00 99 1018.2
20260904075938 22 225 0.0 0.0 0.00 0.00 0.00 99 1018.2
20260904075522 22 248 0.0 0.0 0.00 0.00 0.00 99 1018.2
20260904075106 22 248 0.0 0.0 0.00 0.00 0.00 99 1018.2
20260904074650 22 270 0.0 0.0 0.00 0.00 0.00 99 1018.2
20260904072900 22 270 0.0 0.0 0.00 0.00 0.00 99 1018.2
20260904072446 22 225 0.0 0.0 0.00 0.00 0.00 99 1018.2
20260904072032 22 113 0.0 0.0 0.00 0.00 0.00 99 1018.2
20260904071616 22 225 0.0 0.0 0.00 0.00 0.00 99 1018.2
20260904071158 22 225 0.0 0.0 0.00 0.00 0.00 99 1018.2
20260904070744 22 225 0.0 0.0 0.00 0.00 0.00 99 1018.2
20260904070327 22 225 0.0 0.0 0.00 0.00 0.00 99 1018.2
20260904065912 22 225 0.0 0.0 0.00 0.00 0.00 99 1018.6
20260904065441 22 203 0.0 0.0 0.00 0.00 0.00 99 1018.6
20260904065024 22 270 0.0 0.0 0.00 0.00 0.00 99 1018.6
20260904064607 22 203 0.0 0.0 0.00 0.00 0.00 99 1018.6
20260904064149 22 225 0.0 0.0 0.00 0.00 0.00 99 1018.2
20260904063733 22 225 0.0 0.0 0.00 0.00 0.00 99 1018.6
20260904062830 22 225 0.0 0.0 0.00 0.00 0.00 99 1018.6
20260904062415 22 225 0.0 0.0 0.00 0.00 0.00 99 1018.6
20260904061959 22 203 0.0 0.0 0.00 0.00 0.00 99 1018.6
20260904061544 22 225 0.0 0.0 0.00 0.00 0.00 99 1018.6
20260904061129 23 248 0.0 0.0 0.00 0.00 0.00 99 1018.6
20260904060657 23 203 0.0 0.0 0.00 0.00 0.00 99 1018.9
20260904055811 23 225 0.0 0.0 0.00 0.00 0.00 99 1018.9
20260904055356 23 203 0.0 0.0 0.00 0.00 0.00 99 1018.9
20260904054925 23 225 0.0 0.0 0.00 0.00 0.00 99 1018.9
20260904054509 23 180 0.0 0.0 0.00 0.00 0.00 99 1018.9
20260904053607 23 203 0.0 0.0 0.00 0.00 0.00 99 1018.9
20260904052721 23 203 0.0 0.0 0.00 0.00 0.00 99 1018.9
20260904052139 23 45 0.0 0.0 0.00 0.00 0.00 99 1018.9
20260904051541 23 248 0.0 0.0 0.00 0.00 0.00 99 1018.9
20260904050337 23 225 0.0 0.0 0.00 0.00 0.00 99 1018.9
20260904045739 23 248 0.0 0.0 0.00 0.00 0.00 99 1019.3
20260904045117 23 248 0.0 0.0 0.00 0.00 0.00 99 1019.3
20260904044508 23 203 0.0 0.0 0.00 0.00 0.00 99 1019.3
20260904043947 23 225 0.0 0.0 0.00 0.00 0.00 99 1018.9
20260904043315 23 203 0.0 0.0 0.00 0.00 0.00 99 1019.3